Flight Track Log - Related Links

Times and Time Zones

All times are in EST time to prevent confusion due to time zone crossing. See the SKW2620 flight status page for this flight to view local times or setup timezone preferences in your user account.

Time Position Orientation Groundspeed Altitude Reporting Facility
EST Latitude Longitude Course Direction KTS MPH feet Rate Location/Type
07:24PM 32.8000 -117.3167 301° West 264 304 5,000  Level Southern California TRACON
07:25PM 32.8500 -117.3833 312° West 274 315 8,000 2,500 Climbing Southern California TRACON
07:26PM 32.9000 -117.4500 312° West 284 327 10,000 1,319 Climbing Southern California TRACON
07:27PM 32.9172 -117.4817 303° West 287 330 10,000  Level Los Angeles Center
07:28PM 32.9953 -117.5894 311° West 353 406 10,000  Level Los Angeles Center
07:29PM 33.0257 -117.4754 320° Northwest  Level FlightAware Approximate
07:29PM 33.0619 -117.6761 313° West 356 410 10,000  Level Los Angeles Center
07:30PM 33.1314 -117.7556 316° Northwest 348 400 10,000  Level Los Angeles Center
07:31PM 33.2250 -117.7961 340° North 357 411 10,000  Level Los Angeles Center
07:32PM 33.3161 -117.8367 340° North 353 406 10,000  Level Los Angeles Center
07:33PM 33.4044 -117.8786 338° Northwest 346 398 10,000 -528 Level Los Angeles Center
07:34PM 33.4906 -117.9183 339° North 285 328 8,900 -1,248 Descending Los Angeles Center
07:35PM 33.5619 -117.9511 339° North 278 320 7,400 -968 Descending Los Angeles Center
07:36PM 33.6333 -117.9842 339° North 277 319 6,900 -242 Descending Los Angeles Center
07:37PM 33.6886 -118.0103 339° North 227 261 6,900  Level Los Angeles Center
07:38PM 33.7411 -118.0347 339° North 207 238 6,900 -47 Level Los Angeles Center
07:39PM 33.8167 -118.0500 350° North 243 280 6,800 -667 Descending Southern California TRACON
07:40PM 33.8667 -118.0333 15° North 212 244 5,500 -1,050 Descending Southern California TRACON
07:41PM 33.9333 -118.0500 348° North 206 237 4,700 -850 Descending Southern California TRACON
07:42PM 33.9500 -118.1000 292° West 200 230 3,800 -789 Descending Southern California TRACON
07:43PM 33.9667 -118.1500 292° West 185 213 3,200 -496 Descending Southern California TRACON
07:44PM 33.9500 -118.2167 253° West 178 205 2,800 -438 Descending Southern California TRACON
07:45PM 33.9522 -118.2389 277° West 183 211 2,500 -839 Descending Los Angeles Center
07:46PM 33.9458 -118.3025 263° West 169 194 1,500 -816 Descending Los Angeles Center
07:47PM 33.9417 -118.3456 263° West 147 169 800 -629 Descending Los Angeles Center
07:48PM 33.9378 -118.3919 264° West 137 158 200 -581 Descending Los Angeles Center
07:50PM 33.9333 -118.4000 304° West  Level FlightAware Approximate
07:57PM 33.9425 -118.4081 304° West  Level Estimated

Login

Don't have an account? Register now (free) for customized features, flight alerts, and more!